Tiempo cada hora Abalos

Hoy, 31 Octubre, Sábado

Tiempo Temperatura Precipitaciones Viento Presión Humedad
00:00 +12°C° 0 mm 1 mps 720 mmHg 55%
01:00 +12°C° 0 mm 1 mps 720 mmHg 57%
02:00 +12°C° 0 mm 1 mps 720 mmHg 58%
03:00 +11°C° 0 mm 1 mps 719 mmHg 59%
04:00 +11°C° 0 mm 1 mps 719 mmHg 61%
05:00 +11°C° 0 mm 1 mps 719 mmHg 63%
06:00 +11°C° 0 mm 1 mps 720 mmHg 65%
07:00 +13°C° 0 mm 1 mps 720 mmHg 61%
08:00 +14°C° 0 mm 2 mps 720 mmHg 57%
09:00 +16°C° 0 mm 2 mps 721 mmHg 52%
10:00 +18°C° 0 mm 2 mps 721 mmHg 49%
11:00 +20°C° 0 mm 3 mps 721 mmHg 45%
12:00 +21°C° 0 mm 3 mps 721 mmHg 41%
13:00 +21°C° 0 mm 3 mps 721 mmHg 42%
14:00 +22°C° 0 mm 3 mps 720 mmHg 42%
15:00 +22°C° 0 mm 3 mps 720 mmHg 43%
16:00 +20°C° 0 mm 2 mps 720 mmHg 50%
17:00 +19°C° 0 mm 1 mps 720 mmHg 57%
18:00 +16°C° 0 mm 1 mps 720 mmHg 63%
19:00 +15°C° 0 mm 1 mps 720 mmHg 65%
20:00 +15°C° 0 mm 1 mps 720 mmHg 67%
21:00 +15°C° 0 mm 2 mps 720 mmHg 68%
22:00 +14°C° 0 mm 2 mps 720 mmHg 70%
23:00 +14°C° 0 mm 2 mps 720 mmHg 72%

Mañana, 1 Noviembre, Domingo

Tiempo Temperatura Precipitaciones Viento Presión Humedad
00:00 +14°C° 0 mm 2 mps 720 mmHg 73%
01:00 +14°C° 0 mm 2 mps 719 mmHg 75%
02:00 +14°C° 0 mm 2 mps 719 mmHg 77%
03:00 +14°C° 0 mm 2 mps 719 mmHg 78%
04:00 +14°C° 0 mm 2 mps 719 mmHg 80%
05:00 +13°C° 0 mm 2 mps 719 mmHg 81%
06:00 +13°C° 0 mm 1 mps 719 mmHg 82%
07:00 +15°C° 0 mm 1 mps 720 mmHg 77%
08:00 +16°C° 0 mm 2 mps 720 mmHg 72%
09:00 +17°C° 0 mm 2 mps 720 mmHg 67%
10:00 +19°C° 0 mm 2 mps 720 mmHg 63%
11:00 +20°C° 0 mm 2 mps 720 mmHg 58%
12:00 +21°C° 0 mm 2 mps 720 mmHg 53%
13:00 +21°C° 0 mm 2 mps 720 mmHg 53%
14:00 +23°C° 0 mm 2 mps 720 mmHg 52%
15:00 +23°C° 0 mm 2 mps 719 mmHg 52%
16:00 +20°C° 0 mm 2 mps 719 mmHg 57%
17:00 +18°C° 0 mm 2 mps 719 mmHg 63%
18:00 +18°C° 0 mm 1 mps 718 mmHg 68%
19:00 +16°C° 0 mm 1 mps 718 mmHg 68%
20:00 +16°C° 0 mm 1 mps 718 mmHg 69%
21:00 +16°C° 0 mm 1 mps 718 mmHg 70%
22:00 +16°C° 0 mm 1 mps 718 mmHg 69%
23:00 +16°C° 0 mm 1 mps 718 mmHg 69%

Pasado mañana, 2 Noviembre, Lunes

Tiempo Temperatura Precipitaciones Viento Presión Humedad
00:00 +16°C° 0 mm 1 mps 718 mmHg 69%
01:00 +16°C° 0 mm 2 mps 718 mmHg 68%
02:00 +16°C° 0 mm 2 mps 718 mmHg 68%
03:00 +16°C° 0 mm 2 mps 718 mmHg 68%
04:00 +16°C° 0 mm 2 mps 718 mmHg 69%
05:00 +16°C° 0 mm 2 mps 718 mmHg 69%
06:00 +16°C° 0 mm 2 mps 718 mmHg 70%
07:00 +17°C° 0 mm 2 mps 718 mmHg 68%
08:00 +17°C° 0 mm 2 mps 718 mmHg 66%
09:00 +18°C° 0 mm 2 mps 718 mmHg 63%
10:00 +19°C° 0 mm 2 mps 719 mmHg 60%
11:00 +21°C° 0 mm 3 mps 719 mmHg 57%
12:00 +22°C° 0 mm 3 mps 719 mmHg 53%
13:00 +22°C° 0 mm 3 mps 719 mmHg 53%
14:00 +22°C° 0 mm 3 mps 719 mmHg 53%
15:00 +23°C° 0 mm 2 mps 719 mmHg 53%
16:00 +20°C° 0 mm 2 mps 719 mmHg 62%
17:00 +18°C° 0 mm 2 mps 719 mmHg 70%
18:00 +16°C° 0 mm 2 mps 720 mmHg 79%
19:00 +16°C° 0.1 mm 2 mps 720 mmHg 82%
20:00 +14°C° 0.1 mm 3 mps 721 mmHg 85%
21:00 +13°C° 0.1 mm 3 mps 721 mmHg 88%
22:00 +12°C° 0.4 mm 3 mps 721 mmHg 88%
23:00 +12°C° 0.4 mm 3 mps 721 mmHg 88%

3 Noviembre, Martes

Tiempo Temperatura Precipitaciones Viento Presión Humedad
00:00 +11°C° 0.4 mm 3 mps 722 mmHg 89%
01:00 +10°C° 0.8 mm 3 mps 722 mmHg 89%
02:00 +10°C° 0.8 mm 2 mps 722 mmHg 90%
03:00 +10°C° 0.8 mm 2 mps 722 mmHg 90%
04:00 +10°C° 0.3 mm 2 mps 722 mmHg 90%
05:00 +9°C° 0.3 mm 2 mps 722 mmHg 89%
06:00 +9°C° 0.3 mm 2 mps 722 mmHg 89%
07:00 +9°C° 0.3 mm 2 mps 723 mmHg 88%
08:00 +10°C° 0.3 mm 2 mps 723 mmHg 87%
09:00 +10°C° 0.3 mm 2 mps 724 mmHg 86%
10:00 +10°C° 0.1 mm 2 mps 724 mmHg 84%
11:00 +10°C° 0.1 mm 3 mps 724 mmHg 82%
12:00 +10°C° 0.1 mm 3 mps 724 mmHg 79%
13:00 +10°C° 0 mm 3 mps 724 mmHg 77%
14:00 +10°C° 0 mm 4 mps 724 mmHg 75%
15:00 +10°C° 0 mm 4 mps 724 mmHg 73%
16:00 +9°C° 0 mm 3 mps 724 mmHg 75%
17:00 +8°C° 0 mm 3 mps 724 mmHg 77%
18:00 +7°C° 0 mm 2 mps 724 mmHg 80%
19:00 +7°C° 0 mm 2 mps 724 mmHg 81%
20:00 +7°C° 0 mm 2 mps 724 mmHg 82%
21:00 +7°C° 0 mm 1 mps 725 mmHg 83%
22:00 +7°C° 0 mm 1 mps 724 mmHg 84%
23:00 +7°C° 0 mm 1 mps 724 mmHg 86%

4 Noviembre, Miércoles

Tiempo Temperatura Precipitaciones Viento Presión Humedad
00:00 +7°C° 0 mm 1 mps 723 mmHg 87%
01:00 +6°C° 0 mm 2 mps 723 mmHg 87%
02:00 +7°C° 0 mm 2 mps 723 mmHg 87%
03:00 +7°C° 0 mm 2 mps 722 mmHg 87%
04:00 +7°C° 0.1 mm 2 mps 722 mmHg 88%
05:00 +7°C° 0.1 mm 2 mps 722 mmHg 89%
06:00 +6°C° 0.1 mm 2 mps 721 mmHg 90%
07:00 +7°C° 0.1 mm 2 mps 721 mmHg 87%
08:00 +7°C° 0.1 mm 3 mps 721 mmHg 84%
09:00 +7°C° 0.1 mm 3 mps 721 mmHg 81%
10:00 +8°C° 0.1 mm 3 mps 721 mmHg 76%
11:00 +8°C° 0.1 mm 3 mps 720 mmHg 71%
12:00 +8°C° 0.1 mm 4 mps 720 mmHg 66%
13:00 +8°C° 0.1 mm 4 mps 720 mmHg 67%
14:00 +7°C° 0.1 mm 4 mps 719 mmHg 69%
15:00 +7°C° 0.1 mm 4 mps 719 mmHg 70%
16:00 +6°C° 0 mm 4 mps 719 mmHg 73%
17:00 +5°C° 0 mm 3 mps 719 mmHg 76%
18:00 +5°C° 0 mm 2 mps 719 mmHg 79%
19:00 +5°C° 0 mm 2 mps 719 mmHg 79%
20:00 +6°C° 0 mm 1 mps 718 mmHg 80%
21:00 +6°C° 0 mm 1 mps 718 mmHg 81%
22:00 +6°C° 0.3 mm 1 mps 718 mmHg 84%
23:00 +6°C° 0.3 mm 1 mps 718 mmHg 86%

5 Noviembre, Jueves

Tiempo Temperatura Precipitaciones Viento Presión Humedad
00:00 +5°C° 0.3 mm 2 mps 718 mmHg 89%
01:00 +5°C° 0.2 mm 2 mps 718 mmHg 89%
02:00 +5°C° 0.2 mm 2 mps 718 mmHg 90%
03:00 +6°C° 0.2 mm 2 mps 718 mmHg 91%
04:00 +6°C° 0 mm 2 mps 718 mmHg 92%
05:00 +6°C° 0 mm 2 mps 718 mmHg 93%
06:00 +7°C° 0 mm 3 mps 718 mmHg 93%
07:00 +8°C° 0 mm 3 mps 718 mmHg 91%
08:00 +7°C° 0 mm 4 mps 718 mmHg 88%
09:00 +8°C° 0 mm 4 mps 718 mmHg 86%
10:00 +10°C° 0 mm 6 mps 718 mmHg 78%
11:00 +12°C° 0 mm 7 mps 718 mmHg 71%
12:00 +13°C° 0 mm 8 mps 718 mmHg 63%
13:00 +13°C° 0 mm 8 mps 718 mmHg 63%
14:00 +13°C° 0 mm 8 mps 718 mmHg 62%
15:00 +15°C° 0 mm 8 mps 717 mmHg 62%
16:00 +12°C° 0 mm 7 mps 717 mmHg 68%
17:00 +11°C° 0 mm 6 mps 717 mmHg 74%
18:00 +10°C° 0 mm 5 mps 717 mmHg 79%
19:00 +10°C° 0 mm 5 mps 717 mmHg 83%
20:00 +12°C° 0 mm 5 mps 717 mmHg 86%
21:00 +11°C° 0 mm 6 mps 717 mmHg 89%
22:00 +11°C° 0 mm 6 mps 717 mmHg 90%
23:00 +11°C° 0 mm 6 mps 717 mmHg 91%
Mostrar más

Necesitamos Su Consentimiento

Meteoprog y nuestros Proveedores de Servicios pueden almacenar y acceder a sus datos personales como cookies, identificadores de dispositivo u otras tecnologías similares de su dispositivo y procesar dichos datos para personalizar contenido y anuncios, además de ofrecer funciones de redes sociales y analizar el tráfico.

  • Almacenar y/o acceder a información en su dispositivo

    Se puede almacenar o acceder a cookies, identificadores de dispositivo u otra información de su dispositivo para los fines anteriormente indicados.

  • Anuncios y contenido personalizados, medición de anuncios y contenido, percepciones del público, y desarrollo de productos

    Los anuncios y el contenido pueden personalizarse en base a su perfil. Se pueden añadir más datos para personalizar mejor los anuncios y contenidos. Se puede medir el rendimiento de los anuncios y contenidos. Se puede obtener la percepción sobre el público que ha visto los anuncios y contenidos. Dichos datos pueden usarse para desarrollar o mejorar la experiencia del usuario, sistemas y software.

Al hacer clic en ‘Estoy De Acuerdo’ usted permitirá el uso de las cookies, identificadores de dispositivo, balizas web u otras tecnologías similares indicadas. Su configuración puede cambiarse desde el navegador de su dispositivo.

Para ciertos fines, los intereses legítimos pueden ser considerados por encima del consentimiento. Puede leer más sobre ello en nuestra Política de Privacidad y Cookies.